sat.trackr.live / text

‹ back to catalog

STARLINK-35316

NORAD 65742 · 2025-216J

PAYLOAD ACTIVE UNKNOWN

§ Identity

Operator
Country
US
Launch date
2025-09-25
Launch site
AFETR
Launch vehicle
Mass (kg)
RCS (m²)

Purposes: comms

External: N2YO · Heavens-Above · Gunter

§ Orbital elements

Epoch: 2026-09-20T22:41:11.234688Z

Period
93.85 min
Inclination
53.1567°
Eccentricity
0.0001128
Mean motion
15.34399831 rev/d
Perigee alt
461.9 km
Apogee alt
463.5 km
Semi-major
6,840.8 km
B*
6.7445e-4
RAAN
143.4299°
Arg perigee
84.7554°
Mean anomaly
275.3578°
Rev number
5,538

§ Raw data

STARLINK-353161 65742U 25216J   26263.94526892  .00022479  00000+0  67445-3 0  99962 65742  53.1567 143.4299 0001128  84.7554 275.3578 15.34399831 55384

JSON: /api/v1/satellites/65742 · /tle

For live sub-satellite position, see the globe view (requires WebGL).

§ Visibility from observer

Set your observer location to see the next 7 days of passes ≥ 10°. The values pass through the URL so the page stays shareable.

No JS? Fill the form by hand. The geolocation button needs JavaScript.